Temperature
15 15 14 14 14 14 14 14 14 14 13 13 13 13 13 13 13 13 13 13 13 13 13 13 13 13 13 13 13 13 13 13 13 13 14 14 14 14
15 14 14 14 14 14 14 14 14 14 14 13 13 13 13 13 13 13 12 12 12 12 12 13 13 13 13 13 13 13 13 13 13 13 13 13 13 13
14 14 14 14 14 14 14 14 14 14 13 13 13 13 12 12 12 12 12 12 12 12 12 12 12 13 13 13 13 13 13 13 13 13 13 13 13 13
14 14 14 14 14 14 14 14 13 13 13 13 13 12 12 12 12 12 12 12 12 12 12 12 12 12 12 12 12 12 12 12 12 12 12 12 12 12
14 14 14 14 14 14 13 13 13 13 13 13 12 12 12 12 12 12 11 11 11 11 11 11 11 12 12 12 12 12 12 12 12 12 12 12 12 12
14 14 14 14 14 14 13 13 13 13 13 12 12 12 12 11 11 11 11 11 11 11 11 11 11 11 11 11 11 11 11 11 11 11 11 11 11 11
14 14 14 14 13 13 13 13 13 13 12 12 12 11 11 11 11 11 11 11 11 11 11 11 11 11 11 11 11 11 11 11 11 11 11 11 11 11
13 13 13 13 13 13 13 13 13 12 12 12 12 11 11 11 11 11 11 11 10 10 10 10 10 10 10 10 10 10 11 11 11 10 10 10 10 10
13 13 13 13 13 12 12 12 12 12 12 12 11 11 11 11 11 11 10 10 10 10 10 10 10 10 10 10 10 10 10 10 10 10 10 10 10 10
13 13 13 13 12 12 12 12 12 12 11 11 11 11 11 11 11 10 10 10 10 10 10 10 10 10 10 10 10 10 10 10 10 10 9 9 9 9
13 12 13 12 12 12 12 12 12 11 11 11 11 11 11 10 10 10 10 10 10 10 10 9 9 9 9 9 9 9 9 9 9 9 9 9 9 9
12 12 12 12 12 12 11 11 11 11 11 11 11 11 10 10 10 10 10 9 9 9 9 9 9 9 9 9 9 9 9 8 8 8 8 8 8 8
12 12 12 12 12 11 11 11 11 11 10 10 10 10 10 10 10 9 9 9 9 9 9 8 8 8 8 8 8 8 8 8 8 8 8 8 7 7
12 11 11 11 11 11 11 11 10 10 10 10 9 9 9 9 9 9 9 8 8 8 8 8 8 8 7 7 7 8 8 7 7 7 7 7 7 7
11 11 11 11 11 11 10 10 10 10 9 9 9 9 8 8 8 8 8 8 8 8 8 8 7 7 7 7 7 7 7 7 7 7 6 6 6 6
11 11 10 10 10 10 10 9 9 9 9 8 8 8 8 8 8 8 8 7 7 7 7 7 7 7 7 7 6 6 6 6 6 6 6 6 6 5
10 10 10 10 10 9 9 9 9 8 8 8 8 8 8 7 7 7 7 7 7 7 7 7 6 6 6 6 6 6 6 6 6 5 5 5 5 5
10 10 9 9 9 9 8 8 8 8 8 8 7 7 7 7 7 7 6 6 6 6 6 6 6 6 6 6 6 5 5 5 5 5 5 5 5 5
9 9 9 9 8 8 8 8 8 7 7 7 7 7 6 6 6 6 6 6 5 5 5 5 5 5 5 5 5 5 5 4 4 4 4 4 4 4
9 9 8 8 8 8 7 7 7 7 7 6 6 6 6 6 6 5 5 5 5 5 5 5 5 4 4 4 4 4 4 4 4 4 3 3 3 3
9 8 8 8 7 7 7 7 7 6 6 6 6 6 6 5 5 5 4 4 4 4 4 4 4 4 4 4 4 4 4 3 3 3 3 3 3 3
8 8 8 7 7 7 7 6 6 6 6 6 5 5 5 5 5 4 4 4 4 4 3 3 3 3 3 3 3 3 3 3 3 3 2 2 2 2
8 8 7 7 7 6 6 6 6 6 5 5 5 5 5 4 4 4 3 3 3 3 3 3 3 3 3 2 2 2 2 2 2 2 2 2 1 1
Wind_Speed
4 4 3 3 3 4 3 2 2 2 1 1 2 2 5 6 7 7 8 7 9 10 11 12 12 12 12 12 12 12 12 10 10 9 9 9 10 10
3 4 4 3 3 3 3 3 3 2 1 1 1 1 4 5 7 7 6 7 8 9 10 11 12 12 12 11 12 11 11 11 11 11 11 10 10 10
2 4 4 4 3 3 3 4 4 3 3 1 2 2 3 3 4 5 4 6 6 6 7 9 10 10 11 11 11 11 11 11 11 11 11 11 11 11
2 3 3 3 3 3 3 3 3 3 3 2 2 2 3 2 3 3 4 4 4 4 5 6 7 9 10 10 10 10 10 10 10 10 11 10 10 10
3 4 3 3 2 2 2 2 2 3 2 2 1 2 2 2 2 3 4 4 3 3 3 4 5 7 8 9 9 9 9 9 9 9 9 10 10 10
3 4 4 4 4 4 3 4 3 3 2 2 1 1 2 2 3 2 3 3 3 5 5 4 3 5 6 7 7 7 7 8 8 9 9 9 9 10
3 3 4 6 7 5 4 4 4 3 2 2 1 1 2 2 2 2 2 3 2 3 3 3 2 2 2 4 5 5 6 7 8 8 9 9 9 9
2 3 4 5 6 6 6 6 5 3 2 1 1 1 1 1 1 2 2 2 3 3 2 3 3 2 1 1 3 4 5 6 7 8 9 9 9 9
2 2 3 4 4 3 4 5 5 5 3 1 1 1 1 2 1 2 2 2 2 3 2 3 3 3 2 3 3 3 4 5 6 7 8 9 9 9
3 2 3 3 3 3 1 2 3 3 3 2 1 1 1 2 1 1 2 2 2 2 2 2 3 3 4 3 5 4 5 5 6 8 8 9 9 10
2 3 4 4 5 5 3 2 2 2 4 4 3 2 2 4 4 3 3 2 3 3 2 2 3 4 3 2 5 5 6 7 8 8 9 10 10 10
2 3 5 5 5 5 3 2 2 2 2 2 2 2 2 3 4 1 0 1 2 3 3 2 3 3 4 3 3 4 6 8 8 9 10 11 10 8
1 2 3 4 4 4 3 1 1 2 2 1 1 1 2 2 3 3 3 1 2 3 3 2 3 3 3 4 4 4 4 4 6 8 9 11 10 7
1 2 2 2 2 3 2 2 3 4 1 1 2 2 2 2 2 3 4 4 3 3 5 3 2 3 3 5 5 4 4 5 5 5 7 9 9 9
1 2 2 0 0 1 1 2 2 2 1 1 1 2 1 2 2 3 4 4 5 6 7 6 3 3 3 4 5 5 5 5 5 4 5 6 6 6
1 1 1 1 1 1 1 1 1 1 0 1 1 2 2 2 2 2 3 3 3 5 6 7 6 3 4 5 5 6 5 4 4 5 5 6 7 6
1 1 0 0 0 1 1 1 1 1 1 1 1 2 2 2 3 3 2 3 4 5 5 5 6 6 5 5 5 6 6 5 5 5 5 5 5 5
3 1 0 0 0 0 0 1 1 1 1 1 2 2 2 3 3 3 3 3 4 5 5 5 4 5 5 4 5 5 5 5 5 5 4 5 7 5
2 1 1 0 0 0 0 1 1 1 1 1 2 2 3 3 3 4 4 4 4 5 5 4 4 4 6 8 6 5 5 6 6 5 5 5 7 6
1 1 1 1 0 0 1 1 1 1 1 2 2 2 3 3 4 4 4 4 5 5 5 4 4 4 5 7 6 7 10 6 5 6 6 5 6 9
2 1 1 1 1 1 1 1 1 2 2 2 2 2 3 3 4 4 4 6 6 5 6 6 6 7 5 4 6 6 6 10 9 6 6 6 7 7
2 2 2 1 1 1 1 1 2 2 2 1 2 2 3 3 4 5 5 5 5 6 6 6 6 5 4 6 8 8 8 8 10 12 12 10 6 7
3 3 2 2 2 1 1 2 2 1 1 1 2 3 3 3 4 4 5 5 5 6 6 6 5 5 5 6 7 8 9 9 6 6 7 13 16 18
Wind_Direction
40 48 54 47 35 25 26 47 93 74 44 51 40 43 58 68 55 69 72 64 60 51 45 43 43 43 41 37 34 30 31 35 35 33 32 31 28 24
49 44 43 40 34 27 23 24 44 87 82 35 47 76 56 60 56 71 85 78 72 60 51 47 46 45 42 38 35 31 32 33 35 35 34 30 27 22
70 77 63 50 36 19 29 33 32 58 91 38 40 44 49 45 40 53 85 92 80 70 59 51 48 47 43 39 37 37 34 32 31 31 29 26 25 22
63 79 84 76 53 29 33 33 33 39 84 81 30 24 30 34 37 34 40 59 85 78 67 55 48 47 43 39 37 34 34 32 28 28 25 22 19 19
54 57 52 63 49 37 44 36 31 39 63 92 53 25 18 14 28 20 30 27 32 58 55 41 37 41 36 32 28 26 29 27 24 24 21 17 13 11
64 58 52 56 46 37 40 28 36 38 44 66 70 32 17 360 30 13 2 354 1 15 21 21 21 26 21 20 18 21 25 22 20 16 12 8 6 4
91 87 83 81 70 62 55 34 33 32 33 56 47 36 12 8 358 351 357 334 345 11 1 353 7 27 2 3 9 15 17 14 10 7 4 1 358 357
103 111 116 104 87 78 68 58 54 53 33 44 33 31 341 345 348 359 358 358 332 330 351 324 357 334 351 5 2 6 5 359 357 356 356 355 351 348
68 103 97 90 88 90 72 54 38 34 45 97 59 343 334 334 353 344 330 313 283 284 340 313 325 319 324 321 325 339 337 339 345 346 345 342 338 336
36 70 97 90 63 55 74 62 45 22 26 64 85 45 21 355 342 307 290 312 312 328 21 311 307 304 313 293 297 299 308 315 321 326 328 329 326 323
48 50 72 84 55 43 59 58 54 8 43 65 54 33 357 346 360 18 358 353 327 316 332 332 308 310 304 291 299 291 300 303 301 307 314 316 319 320
68 72 74 81 62 49 55 54 27 339 8 11 353 321 329 346 357 38 16 335 314 309 314 337 316 332 322 304 314 308 303 301 296 300 304 305 306 311
89 76 66 79 67 47 42 49 337 332 339 330 321 331 3 15 15 17 18 324 300 293 308 339 316 319 303 303 308 302 299 308 314 314 306 303 300 292
85 101 104 101 59 24 16 348 347 353 339 340 354 351 351 343 340 353 335 334 315 291 306 320 296 299 305 305 303 308 312 315 318 318 314 310 303 296
50 109 128 134 101 328 319 326 339 345 340 349 334 316 311 312 334 335 326 325 323 312 309 306 293 292 289 286 293 299 309 307 320 318 317 312 305 306
78 105 150 235 270 273 299 290 261 257 287 289 300 305 319 330 323 319 322 325 322 311 314 314 310 288 286 285 284 291 293 293 307 310 309 308 313 314
126 127 148 268 285 290 292 312 335 353 342 330 319 318 319 316 307 307 306 314 309 305 310 318 314 298 275 274 286 288 291 292 291 296 304 302 294 316
118 144 214 218 229 281 336 322 326 335 323 320 315 312 311 308 307 312 313 307 301 301 301 305 314 322 321 302 274 282 294 292 293 294 295 299 296 297
125 182 209 215 264 359 344 327 310 309 315 310 304 305 305 308 311 311 310 310 308 304 300 304 314 318 313 307 299 295 293 296 297 296 291 288 289 289
177 198 212 227 236 260 281 287 296 312 322 318 316 316 317 316 315 310 307 306 305 305 306 306 305 300 290 288 290 294 293 287 292 292 293 294 287 294
202 227 235 230 229 234 256 268 271 277 293 306 307 310 315 318 313 310 311 311 311 306 301 296 289 292 289 298 298 294 291 291 289 288 296 302 303 303
200 212 226 230 225 226 238 253 264 269 274 286 304 308 307 309 305 303 304 306 304 302 303 304 308 315 313 302 296 296 298 301 301 297 290 285 283 289
210 212 211 215 225 234 234 255 265 275 282 297 305 301 299 302 300 298 298 298 299 302 307 307 307 307 302 297 297 297 297 300 303 305 297 295 287 283
Height
1569 1570 1569 1569 1569 1569 1569 1570 1570 1570 1570 1570 1569 1568 1567 1566 1564 1563 1561 1560 1557 1555 1552 1548 1545 1544 1543 1544 1544 1543 1542 1541 1542 1542 1542 1542 1542 1541
1570 1570 1570 1570 1569 1569 1570 1570 1570 1570 1569 1570 1569 1569 1567 1566 1565 1563 1562 1560 1558 1556 1553 1551 1548 1546 1545 1545 1544 1543 1542 1542 1541 1541 1541 1541 1540 1540
1570 1570 1570 1570 1570 1570 1570 1569 1569 1570 1569 1569 1569 1568 1567 1566 1565 1563 1562 1560 1558 1556 1554 1552 1550 1548 1547 1546 1545 1544 1543 1542 1541 1541 1540 1540 1539 1538
1570 1570 1570 1570 1570 1570 1570 1569 1569 1569 1569 1568 1568 1568 1567 1566 1565 1563 1562 1561 1559 1557 1555 1553 1551 1549 1547 1546 1545 1544 1543 1542 1541 1540 1539 1538 1537 1536
1571 1570 1570 1570 1570 1570 1570 1569 1569 1569 1569 1568 1568 1567 1566 1565 1564 1563 1562 1561 1559 1557 1555 1553 1551 1549 1548 1546 1545 1544 1543 1541 1540 1539 1538 1537 1536 1534
1571 1571 1570 1570 1570 1570 1569 1569 1569 1569 1568 1568 1567 1566 1565 1564 1563 1562 1561 1560 1558 1557 1555 1553 1551 1550 1548 1546 1545 1543 1542 1541 1539 1538 1536 1535 1534 1532
1570 1570 1570 1570 1570 1569 1569 1568 1568 1568 1567 1567 1566 1565 1564 1563 1562 1561 1560 1559 1557 1556 1554 1553 1551 1549 1547 1546 1544 1543 1541 1539 1538 1536 1535 1533 1531 1530
1570 1570 1570 1569 1569 1569 1568 1568 1568 1567 1566 1566 1565 1564 1563 1562 1561 1560 1559 1557 1555 1555 1553 1551 1550 1548 1546 1545 1543 1542 1540 1538 1536 1535 1533 1531 1529 1527
1570 1570 1569 1569 1568 1568 1568 1567 1567 1566 1566 1565 1564 1563 1562 1561 1560 1559 1557 1556 1555 1553 1552 1549 1548 1546 1545 1543 1542 1540 1538 1537 1535 1533 1531 1529 1527 1525
1568 1568 1568 1568 1567 1567 1566 1566 1566 1565 1565 1564 1563 1563 1562 1560 1559 1558 1556 1555 1553 1552 1550 1548 1546 1544 1543 1541 1540 1538 1536 1535 1533 1531 1528 1526 1524 1522
1567 1567 1567 1566 1566 1565 1565 1565 1564 1564 1564 1563 1562 1561 1560 1559 1558 1556 1555 1553 1551 1550 1548 1546 1544 1542 1540 1539 1537 1536 1534 1532 1530 1528 1526 1524 1521 1519
1565 1565 1565 1565 1565 1564 1564 1563 1563 1562 1562 1561 1560 1559 1558 1557 1556 1555 1553 1551 1549 1547 1546 1544 1542 1540 1537 1535 1534 1533 1531 1529 1527 1525 1523 1520 1518 1515
1563 1563 1563 1563 1563 1563 1562 1562 1561 1561 1560 1559 1558 1557 1556 1555 1554 1553 1552 1550 1548 1546 1545 1543 1540 1538 1536 1532 1531 1529 1528 1526 1523 1521 1519 1517 1514 1512
1562 1562 1562 1562 1561 1561 1561 1560 1560 1559 1558 1557 1556 1555 1554 1553 1552 1551 1549 1548 1546 1545 1542 1541 1538 1536 1533 1530 1527 1525 1524 1522 1520 1517 1515 1512 1510 1508
1560 1560 1560 1560 1560 1559 1559 1558 1558 1557 1556 1555 1554 1554 1553 1551 1550 1548 1547 1545 1543 1542 1540 1538 1536 1533 1531 1528 1524 1522 1520 1518 1516 1513 1511 1508 1505 1502
1557 1558 1558 1558 1558 1557 1557 1557 1556 1556 1555 1554 1553 1552 1551 1549 1548 1546 1544 1542 1540 1538 1537 1535 1532 1530 1527 1525 1522 1518 1516 1514 1511 1509 1506 1503 1501 1498
1555 1555 1555 1555 1555 1555 1555 1555 1554 1553 1553 1551 1550 1549 1548 1546 1545 1543 1541 1539 1537 1534 1532 1531 1529 1526 1524 1521 1518 1515 1512 1509 1507 1504 1501 1498 1496 1493
1553 1553 1553 1553 1553 1553 1552 1552 1551 1551 1550 1549 1548 1547 1545 1544 1542 1540 1538 1536 1534 1531 1529 1527 1524 1521 1519 1516 1516 1511 1508 1505 1502 1500 1497 1493 1489 1487
1550 1550 1550 1551 1550 1550 1550 1549 1549 1548 1547 1546 1545 1544 1542 1541 1539 1537 1535 1533 1531 1528 1526 1524 1521 1518 1514 1510 1508 1508 1504 1500 1498 1495 1492 1489 1484 1481
1547 1548 1548 1548 1548 1547 1547 1546 1546 1545 1544 1543 1542 1541 1539 1538 1536 1534 1532 1530 1527 1525 1522 1520 1518 1515 1512 1508 1504 1502 1501 1497 1493 1490 1486 1483 1480 1477
1544 1545 1545 1545 1544 1544 1544 1543 1542 1542 1541 1539 1538 1537 1536 1534 1532 1530 1528 1526 1524 1521 1518 1515 1513 1511 1508 1504 1500 1496 1495 1493 1490 1486 1482 1478 1473 1470
1541 1541 1541 1541 1541 1541 1540 1539 1539 1538 1537 1536 1534 1533 1531 1530 1528 1526 1524 1522 1519 1517 1514 1511 1508 1506 1503 1500 1495 1491 1488 1486 1483 1481 1478 1475 1471 1465
1537 1537 1538 1537 1537 1537 1536 1535 1534 1533 1532 1531 1530 1528 1527 1525 1523 1521 1519 1517 1514 1512 1509 1506 1503 1500 1498 1495 1491 1487 1483 1480 1477 1473 1471 1469 1466 1463